Satellite: CO-66
Catalog number: 32791
Epoch time:      09063.18133682
Element set:    0292
Inclination:      097.9580 deg
RA of node:       127.8698 deg
Eccentricity:    0.0016587
Arg of perigee:   015.6348 deg
Mean anomaly:     344.5366 deg
Mean motion:   14.81394005 rev/day
Decay rate:        2.3e-07 rev/day^2
Epoch rev:           04586
Checksum:              335

Satellite: RS-30
Catalog number: 32953
Epoch time:      09064.19711254
Element set:     247
Inclination:      082.5060 deg
RA of node:       321.2898 deg
Eccentricity:    0.0020172
Arg of perigee:   046.3507 deg
Mean anomaly:     313.9241 deg
Mean motion:   12.42999804 rev/day
Decay rate:        1.0e-07 rev/day^2
Epoch rev:            3547
Checksum:              280

/EX






More information about the Keps mailing list